Regional Weather Roundup
Issued by NWS

Home | Current Version | Previous Version | Text Only | Print | Product List | Glossary Off
Versions: 1 2 3 4 5 6 7 8 9 10 11 12 13 14 15 16 17 18 19 20 21 22 23 24 25 26 27 28 29 30 31 32 33 34 35 36 37 38 39 40 41 42 43 44 45 46 47 48 49 50

000
ASUS43 KBIS 260220
RWRND

NORTH DAKOTA REGIONAL WEATHER ROUNDUP
NATIONAL WEATHER SERVICE BISMARCK ND
900 PM CDT FRI JUL 25 2014

NOTE: "FAIR" INDICATES FEW OR NO CLOUDS BELOW 12,000 FEET WITH NO
SIGNIFICANT WEATHER AND/OR OBSTRUCTIONS TO VISIBILITY.


NDZ001>003-009>011-017-260300-
NORTHWEST NORTH DAKOTA

CITY           SKY/WX    TMP DP  RH WIND       PRES   REMARKS
WILLISTON      CLEAR     79  41  25 W6        29.74S
MINOT          CLEAR     72  54  53 SE7       29.74F
MINOT AFB      CLEAR     73  61  66 S2        29.74S
$$

NDZ018>021-031>035-040>046-260300-
SOUTHWEST NORTH DAKOTA

CITY           SKY/WX    TMP DP  RH WIND       PRES   REMARKS
BISMARCK       CLEAR     73  55  53 SE6       29.79F
DICKINSON      CLEAR     72  59  63 S8        29.78F
GARRISON         N/A     70  61  73 E6        29.76S
HETTINGER ARPT CLEAR     73  54  51 S7        29.84S
$$

NDZ004>008-012>016-024-026-027-054-260300-
NORTHEAST NORTH DAKOTA

CITY           SKY/WX    TMP DP  RH WIND       PRES   REMARKS
GRAND FORKS    CLEAR     69  61  75 W6        29.75R
GRND FRKS AFB  CLEAR     71  59  66 W6        29.77R
DEVILS LAKE    CLEAR     72  54  53 CALM      29.77S
$$

NDZ022-023-025-028>030-036>039-047>053-260300-
SOUTHEAST NORTH DAKOTA

CITY           SKY/WX    TMP DP  RH WIND       PRES   REMARKS
FARGO          CLEAR     72  58  61 W5        29.76S
JAMESTOWN      CLEAR     70  57  63 NW3       29.80S
$$



USA.gov is the U.S. government's official web portal to all federal, state and local government web resources and services.